FW5295 Weather Reports


time (UTC)temp
C
wind
direction
speed
KPH
gust
KPH
rain 1hr
cm
rain 24hr
cm
rain mn
cm
humidity
%
barometer
mb
20260902060417 25 238 3.2 6.4 0.00 0.00 0.00 87 1014.0
20260902055920 25 267 3.2 6.4 0.00 0.00 0.00 87 1014.0
20260902055905 25 216 3.2 6.4 0.00 0.00 0.00 87 1013.7
20260902054916 25 246 3.2 6.4 0.00 0.00 0.00 88 1013.7
20260902054633 25 262 4.8 6.4 0.00 0.00 0.00 88 1013.7
20260902053916 25 223 3.2 6.4 0.00 0.00 0.00 88 1014.0
20260902053413 25 210 3.2 6.4 0.00 0.00 0.00 88 1014.0
20260902052914 25 251 3.2 4.8 0.00 0.00 0.00 88 1013.7
20260902052414 25 230 3.2 4.8 0.00 0.00 0.00 88 1013.7
20260902051915 25 228 3.2 4.8 0.00 0.00 0.00 87 1013.7
20260902051642 25 261 0.0 4.8 0.00 0.00 0.00 87 1013.7
20260902050911 25 231 0.0 4.8 0.00 0.00 0.00 87 1013.7
20260902050410 25 228 0.0 4.8 0.00 0.00 0.00 87 1013.7
20260902050131 25 201 1.6 4.8 0.00 0.00 0.00 88 1014.0
20260902045410 25 236 1.6 4.8 0.00 0.00 0.00 88 1014.0
20260902044910 25 224 3.2 4.8 0.00 0.00 0.00 88 1014.0
20260902044410 25 229 3.2 3.2 0.00 0.00 0.00 88 1014.0
20260902043910 25 209 1.6 3.2 0.00 0.00 0.00 88 1014.0
20260902043421 25 234 3.2 3.2 0.00 0.00 0.00 88 1014.0
20260902042910 25 222 3.2 4.8 0.00 0.00 0.00 89 1013.7
20260902042406 25 240 3.2 4.8 0.00 0.00 0.00 89 1013.7
20260902041910 25 226 3.2 3.2 0.00 0.00 0.00 89 1013.7
20260902041406 25 196 0.0 3.2 0.00 0.00 0.00 89 1013.7
20260902040904 25 237 1.6 4.8 0.00 0.00 0.00 89 1014.0
20260902040404 25 229 0.0 3.2 0.00 0.00 0.00 88 1014.0
20260902035904 25 230 0.0 3.2 0.00 0.00 0.00 88 1013.7
20260902035404 25 236 0.0 3.2 0.00 0.00 0.00 88 1014.0
20260902034904 25 228 3.2 4.8 0.00 0.00 0.00 88 1014.0
20260902034405 26 236 0.0 4.8 0.00 0.00 0.00 88 1014.0
20260902033902 26 221 3.2 4.8 0.00 0.00 0.00 87 1014.0
20260902033401 26 235 4.8 4.8 0.00 0.00 0.00 87 1014.3
20260902033120 26 230 4.8 4.8 0.00 0.00 0.00 87 1014.0
20260902032400 26 223 3.2 4.8 0.00 0.00 0.00 87 1014.0
20260902031901 26 234 3.2 4.8 0.00 0.00 0.00 87 1014.0
20260902031402 26 243 1.6 4.8 0.00 0.00 0.00 87 1014.0
20260902030900 26 246 3.2 4.8 0.00 0.00 0.00 87 1014.0
20260902030400 26 236 3.2 4.8 0.00 0.00 0.00 87 1014.0
20260902025900 26 239 3.2 4.8 0.00 0.00 0.00 87 1014.0
20260902025359 26 257 3.2 4.8 0.00 0.00 0.00 87 1014.0
20260902024857 26 253 3.2 4.8 0.00 0.00 0.00 87 1014.0
20260902024358 26 231 3.2 3.2 0.00 0.00 0.00 87 1014.0
20260902023856 26 264 3.2 3.2 0.00 0.00 0.00 87 1014.0
20260902023616 26 258 3.2 3.2 0.00 0.00 0.00 87 1014.3
20260902022856 26 249 3.2 3.2 0.00 0.00 0.00 87 1014.3
20260902022356 26 249 3.2 4.8 0.00 0.00 0.00 87 1014.0
20260902021856 26 254 3.2 4.8 0.00 0.00 0.00 87 1014.0
20260902021354 26 282 3.2 3.2 0.00 0.00 0.00 87 1014.0
20260902020853 26 254 3.2 3.2 0.00 0.00 0.00 87 1013.7
20260902020353 26 237 3.2 3.2 0.00 0.00 0.00 87 1013.7
20260902015853 26 246 1.6 3.2 0.00 0.00 0.00 87 1014.0
20260902015351 26 253 1.6 3.2 0.00 0.00 0.00 87 1014.0
20260902014851 27 250 1.6 3.2 0.00 0.00 0.00 86 1013.7
20260902014617 27 244 1.6 3.2 0.00 0.00 0.00 86 1013.7
20260902013849 27 262 1.6 3.2 0.00 0.00 0.00 85 1014.0
20260902013351 27 240 3.2 3.2 0.00 0.00 0.00 85 1013.7
20260902012850 27 257 1.6 3.2 0.00 0.00 0.00 84 1013.7
20260902012348 27 234 1.6 3.2 0.00 0.00 0.00 84 1013.7
20260902011849 27 223 3.2 3.2 0.00 0.00 0.00 84 1013.3
20260902011401 27 239 1.6 3.2 0.00 0.00 0.00 83 1013.7
20260902010902 27 244 1.6 4.8 0.00 0.00 0.00 83 1013.3
20260902010346 27 255 3.2 4.8 0.00 0.00 0.00 82 1013.3
20260902010111 28 263 3.2 4.8 0.00 0.00 0.00 82 1013.3
20260902005347 28 260 4.8 4.8 0.00 0.00 0.00 81 1012.9
20260902005105 28 262 0.0 4.8 0.00 0.00 0.00 81 1012.9
20260902004346 28 246 3.2 4.8 0.00 0.00 0.00 80 1012.5
20260902003845 28 225 1.6 3.2 0.00 0.00 0.00 80 1012.9
20260902003344 28 214 1.6 3.2 0.00 0.00 0.00 79 1012.9
20260902002843 28 250 3.2 4.8 0.00 0.00 0.00 79 1012.9
20260902002343 29 230 1.6 4.8 0.00 0.00 0.00 80 1012.5
20260902001842 29 254 0.0 4.8 0.00 0.00 0.00 79 1012.9
20260902001342 29 223 1.6 4.8 0.00 0.00 0.00 80 1012.9
20260902001108 29 237 3.2 4.8 0.00 0.00 0.00 80 1012.9
20260902000344 29 240 3.2 3.2 0.00 0.00 0.00 80 1012.9
20260901235841 30 248 1.6 3.2 0.00 0.00 0.00 80 1012.9
20260901235339 30 256 1.6 3.2 0.00 0.00 0.00 80 1013.3
20260901234841 30 224 3.2 3.2 0.00 0.00 0.00 79 1012.9
20260901234352 30 257 1.6 3.2 0.00 0.00 0.00 79 1012.9
20260901233837 30 266 1.6 3.2 0.00 0.00 0.00 78 1013.3
20260901233338 30 261 3.2 3.2 0.00 0.00 0.00 78 1013.3
20260901232836 30 252 1.6 3.2 0.00 0.00 0.00 78 1013.3
20260901232336 30 255 1.6 3.2 0.00 0.00 0.00 78 1013.3
20260901231837 30 221 0.0 4.8 0.00 0.00 0.00 78 1013.3
20260901231335 30 252 1.6 4.8 0.00 0.00 0.00 77 1013.3
20260901230836 31 266 3.2 4.8 0.00 0.00 0.00 77 1013.3
20260901230336 31 248 3.2 6.4 0.00 0.00 0.00 76 1012.9
20260901225836 31 236 3.2 6.4 0.00 0.00 0.00 75 1013.3
20260901225333 31 220 3.2 4.8 0.00 0.00 0.00 76 1013.3
20260901224834 31 215 3.2 4.8 0.00 0.00 0.00 76 1013.3
20260901224333 31 251 3.2 4.8 0.00 0.00 0.00 76 1013.3
20260901223843 31 256 1.6 3.2 0.00 0.00 0.00 76 1013.3
20260901223331 31 234 3.2 4.8 0.00 0.00 0.00 75 1013.3
20260901222831 31 226 3.2 4.8 0.00 0.00 0.00 74 1013.7
20260901222330 31 223 3.2 4.8 0.00 0.00 0.00 74 1013.7
20260901221829 31 265 3.2 6.4 0.00 0.00 0.00 75 1013.3
20260901221329 31 261 1.6 6.4 0.00 0.00 0.00 74 1013.7
20260901220830 31 262 3.2 6.4 0.00 0.03 0.00 74 1013.7
20260901220329 31 256 6.4 6.4 0.00 0.03 0.00 74 1013.3
20260901220049 31 229 3.2 6.4 0.00 0.03 0.00 74 1013.3
20260901215327 31 202 3.2 8.0 0.00 0.03 0.00 74 1013.3
20260901214827 31 355 1.6 8.0 0.00 0.03 0.00 73 1013.3
20260901214327 32 355 1.6 8.0 0.00 0.08 0.00 73 1013.3
20260901213827 32 248 3.2 6.4 0.00 0.08 0.00 73 1013.3
20260901213326 31 271 1.6 6.4 0.00 0.08 0.00 74 1013.3
20260901212826 31 254 3.2 6.4 0.00 0.13 0.00 74 1013.3
20260901212550 31 228 1.6 4.8 0.00 0.13 0.00 76 1013.7
20260901212045 31 280 3.2 4.8 0.00 0.13 0.00 77 1013.7
20260901211323 32 244 3.2 4.8 0.00 0.13 0.00 75 1013.3
20260901210822 32 248 3.2 6.4 0.00 0.13 0.00 75 1013.3
20260901210322 32 232 3.2 6.4 0.00 0.13 0.00 74 1013.7
20260901205821 32 227 4.8 6.4 0.00 0.13 0.00 73 1013.3
20260901205325 32 261 4.8 8.0 0.00 0.13 0.00 72 1013.7
20260901204821 32 253 3.2 8.0 0.00 0.13 0.00 73 1013.7
20260901204319 32 258 3.2 4.8 0.00 0.13 0.00 73 1013.7
20260901203821 31 249 3.2 6.4 0.00 0.13 0.00 74 1013.7
20260901203319 31 263 4.8 6.4 0.00 0.13 0.00 74 1013.7
20260901202819 32 256 3.2 8.0 0.00 0.13 0.00 73 1013.7
20260901202318 32 290 3.2 8.0 0.00 0.13 0.00 72 1013.7
20260901201819 32 247 4.8 8.0 0.00 0.13 0.00 71 1013.7
20260901201316 32 245 3.2 8.0 0.00 0.13 0.00 71 1013.7
20260901200817 32 272 3.2 8.0 0.00 0.13 0.00 71 1013.7
20260901200316 32 236 4.8 8.0 0.00 0.18 0.00 71 1013.7
20260901195816 32 250 3.2 8.0 0.00 0.18 0.00 70 1013.7
20260901195316 32 240 6.4 8.0 0.00 0.18 0.00 72 1013.3
20260901194815 32 257 6.4 8.0 0.00 0.18 0.00 71 1013.7
20260901194314 32 249 6.4 8.0 0.00 0.18 0.00 73 1013.7
20260901193816 32 223 3.2 9.7 0.00 0.18 0.00 73 1013.7
20260901193315 32 251 3.2 9.7 0.00 0.18 0.00 73 1013.7
20260901192814 32 224 6.4 9.7 0.00 0.18 0.00 72 1014.0
20260901192313 32 252 3.2 9.7 0.00 0.18 0.00 74 1014.0
20260901191811 32 267 6.4 9.7 0.00 0.18 0.00 74 1013.7
20260901191324 32 256 6.4 9.7 0.00 0.18 0.00 72 1014.0
20260901190815 32 256 3.2 9.7 0.00 0.18 0.00 75 1014.0
20260901190310 32 245 3.2 9.7 0.00 0.18 0.00 73 1014.0
20260901185812 32 281 6.4 8.0 0.00 0.18 0.00 74 1014.0
20260901185529 32 243 3.2 8.0 0.00 0.18 0.00 74 1014.0
20260901184810 32 246 3.2 9.7 0.00 0.18 0.00 72 1014.0
20260901184309 32 244 6.4 9.7 0.00 0.18 0.00 71 1014.0
20260901183807 32 223 4.8 12.9 0.00 0.18 0.00 71 1014.0
20260901183308 32 261 3.2 12.9 0.00 0.18 0.00 70 1014.3
20260901182807 32 241 6.4 6.4 0.00 0.18 0.00 72 1014.0
20260901182307 32 263 1.6 6.4 0.00 0.18 0.00 72 1014.0
20260901182254 32 212 3.2 12.9 0.00 0.20 0.00 69 1014.0
20260901181305 32 299 3.2 12.9 0.00 0.20 0.00 69 1014.0
20260901180805 31 265 3.2 8.0 0.00 0.20 0.00 72 1014.3
20260901180305 32 285 4.8 9.7 0.00 0.20 0.00 71 1014.0
20260901175804 32 231 4.8 9.7 0.00 0.20 0.00 70 1014.0
20260901175305 31 254 4.8 9.7 0.00 0.20 0.00 71 1014.3
20260901174802 31 238 3.2 9.7 0.00 0.20 0.00 70 1014.3
20260901174303 31 234 4.8 11.3 0.00 0.20 0.00 70 1014.3
20260901174016 31 259 3.2 9.7 0.00 0.20 0.00 69 1014.3
20260901173859 31 236 1.6 11.3 0.00 0.20 0.00 70 1014.3
20260901172803 31 251 3.2 4.8 0.00 0.20 0.00 73 1014.3
20260901172300 31 224 1.6 9.7 0.00 0.20 0.00 71 1014.3
20260901171758 31 252 6.4 9.7 0.00 0.20 0.00 73 1014.3
20260901171300 31 263 4.8 9.7 0.00 0.20 0.00 73 1014.3
20260901170759 31 252 3.2 9.7 0.00 0.20 0.00 75 1014.3
20260901170311 31 260 6.4 8.0 0.00 0.20 0.00 74 1014.3
20260901165758 31 284 6.4 8.0 0.00 0.20 0.00 77 1014.3
20260901165259 31 229 0.0 8.0 0.00 0.20 0.00 78 1014.7
20260901165016 30 212 6.4 8.0 0.00 0.20 0.00 79 1014.7
20260901164257 30 236 4.8 8.0 0.00 0.20 0.00 78 1014.3
20260901164016 30 233 4.8 8.0 0.00 0.20 0.00 81 1014.7
20260901163256 30 246 6.4 6.4 0.00 0.20 0.00 81 1014.7
20260901162755 30 234 3.2 8.0 0.00 0.20 0.00 82 1014.7
20260901162253 30 251 4.8 8.0 0.00 0.20 0.00 81 1014.7
20260901161754 30 239 3.2 6.4 0.00 0.20 0.00 80 1014.7
20260901161252 29 212 4.8 6.4 0.00 0.20 0.00 79 1015.0
20260901160753 29 307 3.2 6.4 0.00 0.20 0.00 83 1015.0
20260901160254 29 253 3.2 6.4 0.00 0.20 0.00 83 1014.7
20260901160016 29 237 0.0 6.4 0.00 0.20 0.00 84 1014.7
20260901155252 28 285 6.4 9.7 0.00 0.20 0.00 83 1014.7
20260901154750 28 256 3.2 9.7 0.00 0.20 0.00 83 1014.7
20260901154250 28 242 4.8 8.0 0.00 0.20 0.00 85 1014.7
20260901153749 28 225 3.2 8.0 0.00 0.20 0.00 84 1014.7
20260901153250 28 254 4.8 9.7 0.00 0.20 0.00 84 1014.7
20260901153012 28 265 9.7 9.7 0.00 0.20 0.00 84 1014.7
20260901152248 28 210 4.8 6.4 0.00 0.20 0.00 87 1014.7
20260901152231 27 248 4.8 6.4 0.00 0.20 0.00 87 1014.7
20260901151247 27 240 1.6 6.4 0.00 0.20 0.00 87 1014.3
20260901150757 27 263 3.2 6.4 0.00 0.20 0.00 86 1014.7
20260901150246 27 224 4.8 6.4 0.00 0.20 0.00 86 1014.7
20260901150010 27 258 3.2 6.4 0.00 0.20 0.00 87 1014.7
20260901145245 27 215 3.2 4.8 0.00 0.20 0.00 87 1014.3
20260901144743 27 231 3.2 6.4 0.00 0.20 0.00 87 1014.7
20260901144243 27 246 4.8 6.4 0.00 0.20 0.00 87 1014.7
20260901143745 27 344 0.0 6.4 0.00 0.20 0.00 87 1014.7
20260901143245 26 228 3.2 6.4 0.00 0.20 0.00 87 1014.3
20260901143004 26 217 1.6 6.4 0.00 0.20 0.00 87 1014.3
20260901142242 26 250 3.2 4.8 0.00 0.20 0.00 88 1014.7
20260901141742 26 228 0.0 4.8 0.00 0.20 0.00 87 1014.7
20260901141241 26 217 3.2 4.8 0.00 0.20 0.00 88 1014.3
20260901140741 26 269 0.0 4.8 0.00 0.20 0.00 88 1014.3
20260901140239 26 236 3.2 4.8 0.00 0.20 0.00 88 1014.3
20260901135738 26 237 3.2 8.0 0.00 0.20 0.00 88 1014.3
20260901135239 26 260 4.8 8.0 0.00 0.20 0.00 88 1014.3
20260901134737 25 243 4.8 6.4 0.00 0.20 0.00 90 1014.3
20260901134239 25 245 1.6 9.7 0.00 0.20 0.00 90 1014.3
20260901133736 25 261 4.8 9.7 0.00 0.20 0.00 92 1014.3
20260901133237 25 240 1.6 6.4 0.00 0.20 0.00 93 1014.7
20260901132737 24 238 3.2 6.4 0.00 0.20 0.00 93 1014.3
20260901132235 24 229 3.2 4.8 0.00 0.20 0.00 94 1014.3
20260901131736 24 181 0.0 4.8 0.00 0.20 0.00 94 1014.3
20260901131233 23 260 1.6 4.8 0.00 0.20 0.00 94 1014.3
20260901130734 23 220 3.2 4.8 0.00 0.20 0.00 94 1014.7
20260901130233 23 233 1.6 4.8 0.00 0.20 0.00 95 1014.7
20260901125950 23 234 1.6 3.2 0.00 0.28 0.00 95 1014.3
20260901125234 23 229 3.2 3.2 0.00 0.28 0.00 95 1014.7
20260901125012 23 251 1.6 3.2 0.00 0.28 0.00 96 1014.7
20260901124233 23 227 1.6 3.2 0.00 0.28 0.00 96 1014.7
20260901123732 23 202 3.2 3.2 0.00 0.28 0.00 96 1014.7
20260901123229 23 240 3.2 3.2 0.00 0.28 0.00 96 1014.7
20260901122730 23 205 0.0 3.2 0.00 0.28 0.00 96 1014.7
20260901122230 23 224 0.0 3.2 0.00 0.28 0.00 96 1014.7
20260901121730 23 258 3.2 3.2 0.00 0.28 0.00 96 1014.7
20260901121229 22 235 1.6 3.2 0.00 0.28 0.00 97 1014.7
20260901121207 22 202 1.6 3.2 0.00 0.28 0.00 97 1014.3
20260901120228 22 197 1.6 3.2 0.00 0.33 0.00 97 1014.3
20260901115728 22 257 1.6 3.2 0.00 0.33 0.00 97 1014.3
20260901115457 22 235 0.0 3.2 0.00 0.33 0.00 97 1014.3
20260901114727 22 205 1.6 3.2 0.00 0.33 0.00 97 1014.3
20260901114224 22 215 3.2 3.2 0.00 0.33 0.00 97 1014.3
20260901113725 22 217 1.6 3.2 0.00 0.33 0.00 96 1014.3
20260901113445 22 209 1.6 3.2 0.00 0.33 0.00 96 1014.3
20260901112943 22 202 0.0 3.2 0.00 0.33 0.00 96 1014.0
20260901112224 22 217 0.0 0.0 0.00 0.33 0.00 96 1014.0
20260901111950 22 217 0.0 1.6 0.00 0.33 0.00 96 1013.7
20260901111221 22 224 0.0 3.2 0.00 0.33 0.00 96 1013.7
20260901110723 22 196 3.2 3.2 0.00 0.33 0.00 96 1014.0
20260901110221 22 222 1.6 3.2 0.00 0.33 0.00 96 1014.0
20260901105720 22 178 0.0 3.2 0.00 0.33 0.00 95 1013.7
20260901105219 22 172 1.6 1.6 0.00 0.33 0.00 95 1013.7
20260901104719 22 212 0.0 3.2 0.00 0.36 0.00 94 1013.7
20260901104219 23 215 1.6 3.2 0.00 0.36 0.00 94 1013.7
20260901103719 23 180 1.6 3.2 0.00 0.36 0.00 94 1013.3
20260901103220 23 116 1.6 3.2 0.00 0.36 0.00 93 1013.7
20260901102945 23 117 0.0 3.2 0.00 0.36 0.00 93 1013.7
20260901102216 23 190 0.0 3.2 0.00 0.36 0.00 93 1013.7
20260901101715 23 215 1.6 3.2 0.00 0.36 0.00 93 1013.7
20260901101215 23 217 1.6 3.2 0.00 0.36 0.00 93 1013.7
20260901100714 23 223 1.6 4.8 0.00 0.36 0.00 94 1013.7
20260901100435 23 230 3.2 6.4 0.00 0.36 0.00 94 1013.3
20260901095714 23 239 6.4 6.4 0.00 0.36 0.00 94 1013.3
20260901095213 23 209 3.2 3.2 0.00 0.36 0.00 94 1013.3
20260901094712 23 258 0.0 4.8 0.00 0.36 0.00 95 1013.3
20260901094212 23 223 1.6 4.8 0.00 0.36 0.00 95 1013.3
20260901093933 23 218 3.2 3.2 0.00 0.36 0.00 95 1013.7
20260901093211 23 224 1.6 3.2 0.00 0.36 0.00 95 1013.7
20260901092711 23 235 0.0 3.2 0.00 0.36 0.00 95 1013.3
20260901092210 23 236 0.0 3.2 0.00 0.36 0.00 95 1013.3
20260901091710 23 333 0.0 3.2 0.00 0.36 0.00 94 1013.7
20260901091223 23 179 0.0 3.2 0.00 0.36 0.00 94 1013.7
20260901090722 23 205 0.0 3.2 0.00 0.36 0.00 94 1013.7
20260901090208 23 219 1.6 3.2 0.00 0.36 0.00 94 1013.3
20260901085707 23 216 3.2 3.2 0.00 0.36 0.00 95 1013.3
20260901085207 23 217 3.2 3.2 0.00 0.36 0.00 95 1013.3
20260901084706 23 241 1.6 3.2 0.00 0.36 0.00 94 1013.3
20260901084434 23 227 0.0 3.2 0.00 0.36 0.00 94 1013.3
20260901083937 23 204 3.2 4.8 0.00 0.36 0.00 94 1013.7
20260901083205 23 214 1.6 4.8 0.00 0.36 0.00 94 1013.7
20260901082708 23 203 3.2 3.2 0.00 0.36 0.00 94 1013.3
20260901082110 23 215 0.0 3.2 0.00 0.36 0.00 94 1013.3
20260901081836 23 218 1.6 3.2 0.00 0.36 0.00 94 1012.9
20260901081108 23 117 0.0 3.2 0.00 0.36 0.00 94 1013.3
20260901080609 23 209 3.2 3.2 0.00 0.36 0.00 93 1013.3
20260901080115 23 192 1.6 6.4 0.00 0.36 0.00 93 1013.3
20260901075607 23 277 1.6 6.4 0.00 0.36 0.00 93 1013.3
20260901075120 23 210 3.2 4.8 0.00 0.36 0.00 93 1013.3
20260901074607 24 238 3.2 4.8 0.00 0.36 0.00 93 1013.3
20260901074106 24 222 3.2 4.8 0.00 0.36 0.00 93 1013.3
20260901073607 24 218 1.6 6.4 0.00 0.36 0.00 93 1013.3
20260901073106 24 259 3.2 6.4 0.00 0.36 0.00 93 1013.3
20260901073046 24 183 1.6 6.4 0.00 0.36 0.00 93 1013.3
20260901072104 24 223 3.2 6.4 0.00 0.36 0.00 93 1013.3
20260901071604 24 249 3.2 6.4 0.00 0.36 0.00 92 1013.3
20260901071104 24 250 1.6 3.2 0.00 0.36 0.00 92 1012.9
20260901070830 24 240 1.6 3.2 0.00 0.36 0.00 92 1012.9
20260901070113 24 223 1.6 3.2 0.00 0.36 0.00 92 1013.3
20260901065823 24 205 0.0 3.2 0.00 0.36 0.00 92 1013.3
20260901065101 24 251 1.6 3.2 0.00 0.36 0.00 92 1012.9
20260901064602 24 209 3.2 3.2 0.00 0.36 0.00 92 1012.9
20260901064100 24 173 0.0 4.8 0.00 0.36 0.00 92 1013.3
20260901063558 24 236 1.6 4.8 0.00 0.36 0.00 92 1012.9
20260901063058 24 225 1.6 6.4 0.00 0.36 0.00 92 1012.9
20260901062557 24 234 0.0 6.4 0.00 0.36 0.00 92 1012.9
20260901062323 24 214 1.6 6.4 0.00 0.36 0.00 92 1012.9
20260901061557 24 210 1.6 6.4 0.00 0.36 0.00 91 1012.9
20260901061056 24 256 3.2 6.4 0.00 0.36 0.00 91 1012.9